星链-33913 (STARLINK-33913)

导读

STARLINK-34259是美国SpaceX星链星座的一颗卫星,于2025年8月28日发射升空,归属星链互联网卫星星座网络。星链星座通过大规模低轨卫星部署,为全球用户提供高速互联网接入服务,该卫星加入后,进一步扩充了星链星座的服务容量,助力星座覆盖能力与服务稳定性提升。

基本信息
目录编号:
65368
目录名称:
STARLINK-34259
国际标识:
2025-190T
轨道中心:
EARTH
卫星名称:
星链-33913
卫星全名:
星链-33913 (STARLINK-33913)
卫星状态:
在轨 (已飞行372 天)
发射日期:
2025-08-28 UTC
国别 :
美国 (US)
星等 :
--
轨道信息
数据来源 国际轨道数据
星历时间: 2026-09-03T20:13:59+0800
18小时前
查看轨道信息
半长轴: 6840.822km
偏心率: 0.0001215
轨道倾角: 53.159°
近地点辐角 99.803°
升交点赤经 59.146°
平近点角 260.311°
近地点: 461.853km
远地点: 463.517km
周期: 93.847分钟
每日圈数: 15.344064
详细信息
固有亮度:
5
最大亮度:
2.5
卫星平台:
Starlink V1.0
覆盖范围:
全球
运营商:
太空探索技术公司
运营商所在国:
美国
制造商(研发单位):
太空探索技术公司
制造商所在国:
美国
使用方式:
暂无
卫星简介
Starlink 计划是 SpaceX 推出的全球卫星互联网项目,通过发射低轨道卫星,为全球尤其是偏远地区提供高速、低延迟的互联网服务。自 2019 年起,Starlink 已部署数千颗卫星,旨在缩小全球数字鸿沟,推动互联网普及。该项目还为军事、航空等行业提供通信支持,带来广泛经济效益。
2D轨道图
3D轨道图
轨道高度分析图
轨道倾角分析图
轨道综合分析图
查看轨道综合分析图
交会数据列表
事件ID 空间交会对象 最接近时刻(TCA) 交会距离 交会风险概率(CRP) 交会风险指数(CRI) 操作
CDM_260904-023406-167606-536821
2026-09-04T
02:34:44+0000
0.543 km
远距离
1.13102E-4 高风险 0.76
CDM_260905-084205-174806-536821
2026-09-05T
08:42:30+0000
0.675 km
远距离
8.288946E-5 中风险 0.73
CDM_260903-162506-167606-536821
2026-09-03T
16:25:04+0000
0.707 km
远距离
5.346363E-5 中风险 0.7
CDM_260905-025605-081806-536821
2026-09-05T
02:56:56+0000
0.837 km
远距离
1.429208E-5 中风险 0.58
CDM_260905-081706-166806-536821
2026-09-05T
08:17:04+0000
1.399 km
极远距离
5.267507E-6 低风险 0.49
CDM_260904-203306-166806-536821
2026-09-04T
20:33:38+0000
1.480 km
极远距离
4.380087E-6 低风险 0.48
CDM_260905-030104-941706-536821
2026-09-05T
03:01:21+0000
1.837 km
极远距离
2.269993E-6 低风险 0.42
CDM_260905-021005-081806-536821
2026-09-05T
02:10:02+0000
1.497 km
极远距离
2.072453E-6 低风险 0.41
CDM_260904-220706-166806-536821
2026-09-04T
22:07:25+0000
1.931 km
极远距离
2.021561E-6 低风险 0.41
CDM_260905-070805-174806-536821
2026-09-05T
07:08:43+0000
2.609 km
极远距离
1.444705E-6 低风险 0.38